This is the latest recevied weather packets stored in our database for station/object ZL2IH. If no packets are shown the sender has not sent any weather packets the latest 10 day(s).
| Time | Temp. | Humidity | Pressure | Rain* | Wind** | Luminosity | Snow |
|---|---|---|---|---|---|---|---|
| 1777682418 | 16.11° C | 100% | 1035.2 hPa | 0 mm | - | - | - |
| 1777680658 | 15.56° C | 100% | 1035.6 hPa | 0 mm | - | - | - |
| 1777676418 | 14.44° C | 100% | 1036.3 hPa | 0 mm | - | - | - |
| 1777675219 | 13.89° C | 100% | 1036.2 hPa | 0 mm | - | - | - |
| 1777673418 | 12.22° C | 100% | 1036.1 hPa | 0 mm | - | - | - |
| 1777671019 | 10.56° C | 100% | 1036.3 hPa | 0 mm | - | - | - |
| 1777670418 | 10.56° C | 100% | 1036.4 hPa | 0 mm | - | - | - |
| 1777669219 | 10° C | 100% | 1036.5 hPa | 0 mm | - | - | - |
| 1777666818 | 7.78° C | 100% | 1036 hPa | 0 mm | - | - | - |
| 1777665018 | 6.67° C | 100% | 1035.7 hPa | 0 mm | - | - | - |
| 1777663218 | 5.56° C | 100% | 1035.5 hPa | 0 mm | - | - | - |
| 1777659638 | 5.56° C | 100% | 1035.5 hPa | 0 mm | - | - | - |
| 1777658418 | 6.11° C | 100% | 1035.7 hPa | 0 mm | - | - | - |
| 1777657818 | 6.11° C | 100% | 1035.8 hPa | 0 mm | - | - | - |
| 1777652478 | 6.67° C | 100% | 1035.6 hPa | 0 mm | - | - | - |
| 1777650018 | 7.22° C | 100% | 1035.7 hPa | 0 mm | - | - | - |
| 1777648818 | 7.22° C | 100% | 1035.7 hPa | 0 mm | - | - | - |
| 1777647618 | 7.22° C | 100% | 1035.8 hPa | 0 mm | - | - | - |
| 1777645818 | 7.22° C | 100% | 1036.1 hPa | 0 mm | - | - | - |
| 1777645238 | 7.22° C | 100% | 1036.1 hPa | 0 mm | - | - | - |
| 1777642818 | 7.22° C | 100% | 1036.3 hPa | 0 mm | - | - | - |
| 1777641018 | 7.78° C | 100% | 1036.3 hPa | 0 mm | - | - | - |
| 1777640457 | 7.78° C | 100% | 1036.2 hPa | 0 mm | - | - | - |
| 1777639258 | 7.78° C | 100% | 1036.3 hPa | 0 mm | - | - | - |
| 1777638617 | 7.78° C | 100% | 1036.1 hPa | 0 mm | - | - | - |
* Rain latest hour (hover to see other rain measurements)
** Current wind speed in m/s (hover to see current wind gust speed)